Lid_Strength_Index
3 3 4 3 3 3 4 4 4 4 4 4 4 4 4 4 3 3 3 2 3 3 3 3 2 2 2 3 3 -1 -3 -1 2 3 4 4 5 5 6 6 5 6 6 5 4 4 4
2 3 3 4 4 3 4 4 4 4 4 4 4 4 4 3 3 3 2 3 3 3 3 2 2 2 2 5 -0 0 1 2 2 3 3 3 4 4 5 5 6 5 5 5 5 4 4
3 3 3 3 4 4 4 4 5 4 4 4 4 4 4 4 4 3 4 3 3 3 3 2 2 1 2 3 -0 -0 0 2 2 3 4 3 3 4 4 5 4 5 6 5 5 4 5
4 3 3 3 3 4 4 4 4 4 3 4 4 4 4 4 4 4 5 3 3 3 2 2 1 0 4 0 -1 1 1 2 2 3 3 2 2 3 4 4 5 6 5 7 5 5 4
4 4 3 3 3 4 5 4 4 3 4 4 4 4 4 5 4 4 4 3 2 2 2 1 1 2 5 1 2 1 1 3 2 2 2 2 2 3 4 6 6 6 8 7 7 5 5
4 4 4 4 4 5 5 5 5 3 3 3 4 4 4 4 3 3 3 3 2 1 1 -0 0 3 2 4 2 1 1 1 3 2 3 3 4 5 5 6 9 8 8 7 7 6 5
3 4 4 4 4 5 5 5 5 4 3 3 3 5 5 5 4 3 3 0 2 3 2 3 3 3 3 2 2 2 1 2 2 3 5 4 6 7 6 5 6 6 7 8 6 5 6
4 3 3 4 4 5 4 5 5 5 4 3 3 3 4 3 3 3 2 2 2 2 4 3 3 3 2 2 5 3 1 3 4 6 5 5 7 5 5 5 6 7 7 7 6 6 6
3 4 3 4 4 4 4 5 5 5 6 4 3 3 3 3 3 3 1 1 -0 0 4 4 3 3 3 3 5 4 2 3 4 6 5 7 6 5 6 6 7 7 7 7 8 6 5
3 4 3 3 4 4 4 5 5 5 6 5 3 3 3 4 4 0 1 -0 -0 0 7 6 5 4 3 2 5 2 2 3 4 6 6 6 5 6 6 7 6 8 6 6 7 8 10
4 4 4 4 3 4 4 5 5 5 5 5 4 3 3 4 2 2 1 -0 -0 1 12 5 5 1 3 4 4 4 2 3 5 6 5 7 6 6 7 6 6 7 6 6 7 7 8
3 3 4 4 4 3 4 4 5 5 5 5 4 3 4 2 0 0 -0 -0 1 8 12 7 4 5 5 4 5 4 3 2 3 5 5 6 4 5 5 5 5 5 6 6 6 7 10
3 3 4 4 4 3 3 4 4 5 5 5 4 4 4 1 2 0 -0 1 7 10 6 7 6 5 5 6 5 5 5 6 6 8 8 6 6 5 4 6 5 6 7 11 12 12 14
3 2 3 4 4 3 3 4 4 5 5 4 5 5 3 1 -0 -0 1 5 10 8 7 5 5 5 7 6 6 5 6 7 5 6 7 9 10 6 5 6 7 7 7 10 14 13 12
2 2 2 3 3 3 3 3 4 4 5 5 5 0 0 -1 -1 -1 3 8 8 7 6 6 6 7 7 6 6 6 6 7 6 5 8 8 9 5 5 5 5 7 8 6 9 8 10
2 2 3 3 3 4 3 3 3 4 4 5 3 1 1 -1 -1 1 5 8 6 5 5 5 8 6 8 7 7 7 7 6 6 5 4 6 10 6 5 5 5 6 5 9 9 13 14
1 2 2 3 3 4 3 3 3 4 4 5 2 3 1 -1 -0 3 7 6 5 4 4 6 6 7 7 7 7 7 7 6 5 5 4 5 7 8 6 7 8 6 8 7 8 9 12
1 1 2 3 3 3 3 3 4 4 5 3 2 5 0 -1 5 4 6 5 8 5 4 5 5 6 6 6 7 7 7 6 5 5 6 5 7 9 8 6 5 6 7 7 10 10 9
3 1 1 2 3 3 4 4 3 4 4 3 4 3 0 1 7 6 4 5 5 5 5 5 6 5 5 6 7 6 6 5 5 5 6 5 7 10 9 7 6 7 6 6 7 8 10
3 3 1 1 2 3 4 4 4 4 4 3 3 6 3 3 3 5 6 6 6 4 5 5 5 5 6 6 6 7 7 6 5 5 5 4 7 9 11 9 7 9 7 7 7 10 10
2 3 3 2 2 2 3 4 4 5 5 3 3 4 4 6 5 5 5 5 6 7 4 4 5 5 6 7 7 7 6 6 5 6 5 6 9 8 7 7 7 7 7 7 8 8 10
1 1 3 3 3 2 3 4 4 4 5 3 4 4 2 5 5 5 6 6 6 6 6 6 6 5 5 7 6 7 6 6 6 5 5 5 9 7 9 7 7 8 7 7 7 7 7
0 0 1 2 3 3 2 3 3 4 5 3 -0 1 3 5 5 6 6 6 6 5 5 5 5 5 6 6 5 4 4 5 5 6 6 7 8 9 11 8 8 10 8 8 7 6 7
1 0 1 1 2 3 4 2 3 4 4 3 1 2 4 6 5 5 5 5 6 5 6 5 4 5 5 3 3 3 4 4 5 5 5 7 8 8 11 9 15 8 5 6 7 6 5
1 0 1 1 1 3 4 4 3 3 3 3 1 2 4 6 5 5 5 5 5 5 5 5 4 4 3 4 6 8 8 7 6 5 6 5 7 10 12 12 9 8 6 7 7 8 5
2 2 0 1 1 1 3 4 4 4 3 3 1 -0 2 5 5 4 5 4 6 5 5 5 3 2 3 5 7 10 11 9 9 8 5 6 6 9 10 13 14 8 6 4 5 10 5
2 2 1 1 1 1 2 4 4 5 4 3 0 -1 2 4 3 3 5 5 4 4 6 5 4 5 3 6 8 9 9 7 9 10 10 9 9 10 10 11 9 5 5 4 11 10 6
2 2 2 0 1 1 1 2 4 5 5 4 1 -1 1 4 3 3 3 4 3 4 6 5 5 5 6 7 8 8 8 7 8 7 8 9 10 10 9 11 12 5 5 8 7 5 4
2 3 2 0 1 1 1 2 3 5 5 6 3 0 -0 3 3 1 2 2 2 2 4 4 5 5 4 6 6 6 7 7 8 10 5 10 7 9 8 8 5 4 5 3 3 4 4